090  
ASUS42 KFFC 160010  
RWRGA  
WEATHER ROUNDUP FOR GEORGIA  
NATIONAL WEATHER SERVICE PEACHTREE CITY GA  
800 PM EDT MON JUL 15 2019  
 
NOTE: "FAIR" INDICATES FEW OR NO CLOUDS BELOW 12,000 FEET WITH NO  
SIGNIFICANT WEATHER AND/OR S TO VISIBILITY
.  
 
* = USE WITH CAUTION. THE STATIONS MARKED WITH AN ASTERISK MAY NOT  
REPORT WEATHER SUCH AS PRECIPITATION, FOG, OR THUNDER AND ARE NOT  
QUALITY CONTROLLED BY NWS.  
 
THE REMARK "TC" DENOTES TEMPERATURE READING IN DEGREES CELSIUS.  
 
GAZ001>058-160100-  
NORTH GEORGIA  
 
CITY SKY/WX TMP DP RH WIND PRES REMARKS
 
ATLANTA MOCLDY 89 66 46 SW8 30.12R HX 91  
6HR MIN TEMP: 89; 6HR MAX TEMP: 94;  
 
ATHENS FAIR 90 66 45 N5 30.10R HX 92  
6HR MIN TEMP: 90; 6HR MAX TEMP: 97;  
 
CHAMBLEE FAIR 86 66 51 SW6 30.11R  
6HR MIN TEMP: 86; 6HR MAX TEMP: 91;  
 
PEACHTREE CITY FAIR 86 72 62 CALM 30.12R HX 92  
6HR MIN TEMP: 86; 6HR MAX TEMP: 93;  
 
ROME FAIR 87 71 58 NW5 30.08R HX 93  
6HR MIN TEMP: 87; 6HR MAX TEMP: 92;  
 
WEST ATLANTA FAIR 89 65 44 SW6 30.10R HX 91  
6HR MIN TEMP: 89; 6HR MAX TEMP: 94;  
 
GAINESVILLE FAIR 87 68 52 N5 30.15R HX 90  
6HR MIN TEMP: 87; 6HR MAX TEMP: 91;  
 
CARTERSVILLE FAIR 84 71 65 CALM 30.10R  
6HR MIN TEMP: 84; 6HR MAX TEMP: 91;  
 
 
CITY SKY/WX TMP DP RH WIND PRES REMARKS
 
DALTON* FAIR 86 72 62 N3 30.11R HX 92  
LAWRENCEVILLE* FAIR 85 75 72 CALM 30.12R HX 93  
MARIETTA MOCLDY 86 68 55 W6 30.11R  
KENNESAW* FAIR 80 74 81 CALM 30.12R  
CANTON* FAIR 84 70 61 CALM 30.14S  
BLAIRSVILLE* FAIR 79 73 82 CALM 30.19R  

 
 
GAZ059>098-102>109-160100-  
CENTRAL GEORGIA  
 
CITY SKY/WX TMP DP RH WIND PRES REMARKS
 
AUGUSTA-BUSH FAIR 88 76 67 CALM 30.06R HX 99  
6HR MIN TEMP: 88; 6HR MAX TEMP: 100; 6HR PCP: TRACE;  
 
AUGUSTA-DANIEL FAIR 94 64 37 NE3 30.09R HX 95  
6HR MIN TEMP: 92; 6HR MAX TEMP: 98;  
 
COLUMBUS FAIR 86 73 65 E5 30.09R HX 93  
6HR MIN TEMP: 83; 6HR MAX TEMP: 95; 6HR PCP: TRACE;  
 
MACON FAIR 90 66 45 SW5 30.08R HX 92  
6HR MIN TEMP: 90; 6HR MAX TEMP: 98;  
 
ROBINS AFB MOCLDY 94 64 37 NW6 30.07R HX 95  
 
 
CITY SKY/WX TMP DP RH WIND PRES REMARKS
 
LAGRANGE* FAIR 81 70 68 CALM 30.11S  
SYLVANIA* FAIR 88 75 65 CALM 30.07R HX 98  
MILLEDGEVILLE* FAIR 91 66 43 CALM 30.08R HX 94  

 
 
GAZ099>101-110>166-160100-  
SOUTH GEORGIA  
 
CITY SKY/WX TMP DP RH WIND PRES REMARKS
 
SAVANNAH MOCLDY 91 72 53 N3 30.05R HX 98  
6HR MIN TEMP: 91; 6HR MAX TEMP: 97;  
 
VALDOSTA FAIR 84 75 74 CALM 30.08R HX 92  
6HR MIN TEMP: 84; 6HR MAX TEMP: 96;  
 
ALMA FAIR 91 69 48 W3 30.07R HX 96  
6HR MIN TEMP: 91; 6HR MAX TEMP: 97;  
 
ST SIMONS FAIR 88 74 63 S8 30.06R HX 96  
6HR MIN TEMP: 88; 6HR MAX TEMP: 99;  
 
FT STEWART FAIR 89 77 66 CALM 30.04R HX 101  
ALBANY FAIR 91 73 55 SW3 30.09R HX 99  
HUNTER AFB MOCLDY 92 72 52 SE5 30.03R HX 99  
MOODY AFB CLEAR 85 76 74 W3 30.08R HX 94  
BRUNSWICK FAIR 89 76 65 SE9 30.06R HX 100  
 
 
CITY SKY/WX TMP DP RH WIND PRES REMARKS
 
BAINBRIDGE* N/A 86 68 54 MISG 30.11R  
MOULTRIE* FAIR 82 68 61 CALM 30.10S  
VIDALIA* FAIR 93 55 27 NW5 30.07S HX 91  
WAYCROSS* FAIR 91 61 36 CALM 30.07R HX 91  
DOUGLAS* FAIR 88 72 57 CALM 30.10R HX 94  

 
 
 
CLICK HERE TO GO TO PREVIOUS BULLETINS.

The Nexlab GA Page Main Text Page